Regional Weather Roundup
Issued by NWS Jackson, KY

Home | Current Version | Previous Version | Graphics & Text | Print | Product List | Glossary On
Versions: 1 2 3 4 5 6 7 8 9 10 11 12 13 14 15 16 17 18 19 20 21 22 23 24 25 26 27
000
ASUS43 KJKL 230310
RWRJKL

EAST KENTUCKY HOURLY WEATHER ROUNDUP
NATIONAL WEATHER SERVICE JACKSON KY
1100 PM EDT MON MAY 22 2017

NOTE: "FAIR" INDICATES FEW OR NO CLOUDS BELOW 12,000 FEET WITH
NO SIGNIFICANT WEATHER AND/OR OBSTRUCTIONS TO VISIBILITY.

* THESE REPORTS ARE NOT UNDER NWS QUALITY CONTROL AND MAY NOT
  REPORT WEATHER SUCH AS PRECIPITATION AND FOG.

KYZ079-080-083-085-087-088-110-112-115-119-120-230400
...EASTERN KENTUCKY...

CITY           SKY/WX    TMP DP  RH WIND       PRES   REMARKS
JACKSON        CLOUDY    58  50  75 CALM      30.01F
LONDON         CLOUDY    59  51  75 NE6       29.99F
SOMERSET*      CLOUDY    59  52  77 NE3       30.01S
MONTICELLO*    CLOUDY    59  56  89 CALM      30.01S
WILLIAMSBURG*  CLOUDY    59  54  82 CALM      29.99S
MIDDLESBORO*   CLOUDY    60  57  91 CALM      29.99S
HARLAN APT*    CLOUDY    59  54  82 CALM      30.00F
PIKE CO APT*     N/A     58  55  88 NE5       30.02F
BIG SANDY APT* CLOUDY    56  54  92 NE5       30.02F
MOREHEAD APT*  CLOUDY    57  50  77 E5        30.04S
$$

KYZ035-036-041-042-044-050-067-078-099-230400
...CENTRAL KENTUCKY...

CITY           SKY/WX    TMP DP  RH WIND       PRES   REMARKS
MT STERLING*   CLOUDY    55  52  88 CALM      30.03F
FLEMING/MASON* CLOUDY    57  51  79 E3        30.04F
DANVILLE*      CLOUDY    57  50  77 CALM      30.02S
LEXINGTON      CLOUDY    59  49  69 NE5       30.02S
FRANKFORT      CLOUDY    59  50  72 CALM      30.00S
LOUISVILLE     CLOUDY    65  49  56 SE5       30.00S
LEBANON*         N/A     61  50  67 CALM      30.01S
GLASGOW*       CLOUDY    62  54  73 NE3       29.99S
BOWLING GREEN  CLOUDY    64  57  78 NE5       29.99S
$$

KYZ091>093-OHZ055-061-077-WVZ005-015-034-035-042-230400
...SOUTHERN OHIO/WEST VIRGINIA...

CITY           SKY/WX    TMP DP  RH WIND       PRES   REMARKS
COVINGTON      CLOUDY    59  46  62 CALM      30.02S
COLUMBUS       CLOUDY    59  47  64 SE3       30.03R
DAYTON         CLOUDY    60  46  59 S6        30.03R
WILMINGTON     CLOUDY    57  48  72 SE3       30.02F
HUNTINGTON     CLOUDY    56  52  86 E3        30.02S
CHARLESTON     CLOUDY    56  53  90 CALM      30.03F
PINEVILLE*     CLOUDY    55  54  96 MISG      30.08F
BECKLEY        CLOUDY    54  51  90 CALM      30.06F
BLUEFIELD      CLOUDY    53  48  83 SE3       30.06F
LOGAN CO APT*    N/A     59  54  82 CALM      30.03F
$$

VAZ002-007-008-TNZ017-027-036-066-071-230400
...SOUTHWEST VIRGINIA/EAST TENNESSEE...

CITY           SKY/WX    TMP DP  RH WIND       PRES   REMARKS
WISE*          CLOUDY    57  57 100 NE3       30.05F
JONESVILLE*      N/A     59  57  94 CALM      30.00S
ABINGDON*      CLOUDY    63  58  84 E3        30.02S
BRISTOL        MOCLDY    63  60  90 CALM      29.98F
MORRISTOWN*    PTCLDY    66  63  88 CALM      29.96S
SEVIERVILLE*   PTCLDY    64  63  94 CALM      29.95S
KNOXVILLE      CLOUDY    68  63  84 N6        29.94S
LAFOLLETTE*    CLEAR     59  57  94 CALM      30.00S
OAK RIDGE      CLOUDY    66  55  67 CALM      29.97S
CROSSVILLE     CLOUDY    62  54  74 NE3       30.00S
NASHVILLE      CLOUDY    67  55  65 NE7       29.97F
$$

...KEY TO REMARKS...
VSB - VISIBILITY IN MILES
WCI - WIND CHILL INDEX
HX  - HEAT INDEX

$$




USA.gov is the U.S. government's official web portal to all federal, state and local government web resources and services.